Tracking 19717 objects as of 24-Jun-2019
HD Live streaming from Space Station
objects crossing your sky now

SL-8 DEB

Track SL-8 DEB now!
10-day predictions


NORAD ID: 22841
Int'l Code: 1991-009CL
Perigee: 1,483.5 km
Apogee: 1,690.4 km
Inclination: 74.0 °
Period: 117.8 minutes
Semi major axis: 7957 km
RCS: 0.0241 m2 (small)
Launch date: February 12, 1991
Source: Commonwealth of Independent States (former USSR) (CIS)
Launch site: PLESETSK MISSILE AND SPACE COMPLEX (PKMTR)

Note: This is SATELLITE DEBRIS
aabbcc
Your satellite tracking list
Your tracking list is empty




NASA's NSSDC Master Catalog

Two Line Element Set (TLE):
1 22841U 91009CL  19174.43413288 +.00000007 +00000-0 +19910-3 0  9991
2 22841 074.0445 079.8639 0130014 220.8224 261.5721 12.22921173262884
Source of the keplerian elements: AFSPC